EW4120 Weather Reports


Display with metric or nautical units.
time (UTC)temp
F
wind
direction
speed
MPH
gust
MPH
rain 1hr
in
rain 24hr
in
rain mn
in
humidity
%
barometer
mb
20260831000537 77 0.0 0.0 0.00 0.03 0.02 85 1021.7
20260830235517 78 0.0 0.0 0.00 0.03 0.02 82 1021.7
20260830234617 80 0.0 0.0 0.00 0.03 0.02 80 1021.7
20260830232516 82 0.0 0.0 0.00 0.03 0.02 75 1021.8
20260830231516 84 0.0 2.0 0.00 0.03 0.02 72 1021.8
20260830230537 87 0.0 1.0 0.00 0.03 0.02 68 1021.9
20260830225516 88 0.0 1.0 0.00 0.03 0.02 67 1021.9
20260830224516 89 0.0 0.0 0.00 0.03 0.02 64 1021.9
20260830223516 89 0.0 0.0 0.00 0.03 0.02 66 1021.8
20260830222516 90 0.0 1.0 0.00 0.03 0.02 64 1021.7
20260830221516 90 0.0 0.0 0.00 0.03 0.02 65 1021.7
20260830220536 89 0.0 1.0 0.00 0.03 0.02 64 1021.7
20260830215516 89 293 1.0 3.0 0.00 0.03 0.02 64 1021.8
20260830214557 89 0.0 2.0 0.00 0.03 0.02 64 1021.7
20260830213617 89 0.0 1.0 0.00 0.03 0.02 65 1021.7
20260830212516 89 45 1.0 3.0 0.00 0.03 0.02 63 1021.6
20260830211516 89 0.0 2.0 0.00 0.03 0.02 65 1021.7
20260830210516 89 338 1.0 5.0 0.00 0.03 0.02 64 1021.8
20260830205516 89 0.0 2.0 0.00 0.03 0.02 66 1021.9
20260830204616 88 113 1.0 3.0 0.00 0.03 0.02 65 1021.9
20260830202536 88 45 1.0 3.0 0.00 0.03 0.02 67 1021.9
20260830201516 88 315 1.0 3.0 0.00 0.03 0.02 67 1022.1
20260830200536 88 315 1.0 4.0 0.01 0.03 0.02 68 1022.1
20260830195516 87 315 1.0 3.0 0.01 0.03 0.02 70 1022.4
20260830194516 87 293 1.0 2.0 0.01 0.03 0.02 69 1022.4
20260830193516 85 0.0 4.0 0.01 0.03 0.02 74 1022.5
20260830192556 84 23 1.0 4.0 0.01 0.03 0.02 76 1022.6
20260830191516 84 0.0 3.0 0.01 0.03 0.02 74 1022.6
20260830190516 83 0.0 2.0 0.00 0.02 0.01 74 1022.6
20260830185536 84 45 1.0 3.0 0.00 0.02 0.01 75 1022.9
20260830184536 83 0.0 0.0 0.00 0.02 0.01 77 1023.1
20260830183516 81 0.0 0.0 0.00 0.02 0.01 78 1023.2
20260830182556 82 0.0 0.0 0.00 0.02 0.01 76 1023.5
20260830181516 82 0.0 0.0 0.00 0.03 0.01 77 1023.7
20260830180516 82 0.0 0.0 0.00 0.03 0.01 77 1023.8
20260830175556 81 0.0 3.0 0.00 0.03 0.01 76 1023.9
20260830174516 81 0.0 2.0 0.00 0.03 0.01 76 1024.0
20260830173556 82 293 2.0 5.0 0.00 0.03 0.01 75 1024.1
20260830172516 82 23 1.0 4.0 0.00 0.03 0.01 77 1024.2
20260830171536 81 0.0 1.0 0.00 0.03 0.01 80 1024.3
20260830170516 81 0.0 3.0 0.00 0.03 0.01 78 1024.4
20260830165536 81 0.0 2.0 0.00 0.03 0.01 81 1024.5
20260830164636 80 0.0 1.0 0.00 0.03 0.01 82 1024.6
20260830163536 79 0.0 1.0 0.00 0.03 0.01 86 1024.8
20260830162516 78 0.0 1.0 0.00 0.03 0.01 86 1024.9
20260830161536 78 0.0 0.0 0.00 0.03 0.01 86 1025.0
20260830160516 78 0.0 0.0 0.00 0.03 0.01 88 1025.1
20260830155516 77 0.0 1.0 0.00 0.03 0.01 88 1025.1
20260830154536 76 0.0 2.0 0.00 0.03 0.01 87 1025.1
20260830153616 76 0.0 0.0 0.00 0.03 0.01 89 1025.1
20260830152556 76 0.0 3.0 0.00 0.03 0.01 88 1025.1
20260830151536 76 0.0 0.0 0.00 0.03 0.01 88 1025.2
20260830150616 76 0.0 0.0 0.00 0.03 0.01 89 1025.3
20260830145536 76 0.0 1.0 0.00 0.03 0.01 91 1025.2
20260830144516 75 0.0 2.0 0.00 0.03 0.01 90 1025.1
20260830143556 75 0.0 1.0 0.00 0.03 0.01 91 1025.1
20260830142536 74 0.0 1.0 0.00 0.03 0.01 92 1025.0
20260830141516 74 0.0 1.0 0.00 0.03 0.01 94 1025.1
20260830140535 73 45 1.0 5.0 0.00 0.03 0.01 95 1025.1
20260830135556 73 0.0 0.0 0.00 0.03 0.01 97 1025.2
20260830134536 72 0.0 1.0 0.00 0.04 0.01 97 1025.2
20260830133515 72 0.0 1.0 0.00 0.04 0.01 98 1025.2
20260830132535 72 0.0 0.0 0.00 0.04 0.01 98 1025.3
20260830131515 71 0.0 1.0 0.00 0.05 0.01 99 1025.3
20260830130636 71 0.0 0.0 0.00 0.05 0.01 99 1025.2
20260830125515 71 0.0 0.0 0.00 0.05 0.01 99 1025.2
20260830124556 71 0.0 0.0 0.00 0.05 0.01 99 1025.3
20260830123535 71 0.0 1.0 0.00 0.05 0.01 99 1025.2
20260830122515 71 0.0 0.0 0.00 0.05 0.01 99 1025.2
20260830121535 71 0.0 1.0 0.00 0.05 0.01 100 1025.1
20260830120515 70 0.0 0.0 0.00 0.05 0.01 99 1025.1
20260830115535 70 0.0 0.0 0.00 0.05 0.01 100 1025.0
20260830114515 69 0.0 0.0 0.00 0.05 0.01 99 1024.8
20260830113515 69 0.0 2.0 0.00 0.05 0.01 99 1024.7
20260830112515 69 0.0 0.0 0.00 0.05 0.01 99 1024.7
20260830111515 68 0.0 0.0 0.00 0.05 0.01 99 1024.7
20260830110515 68 0.0 0.0 0.00 0.05 0.01 99 1024.5
20260830104535 67 0.0 0.0 0.00 0.05 0.01 99 1024.3
20260830103535 67 0.0 0.0 0.00 0.05 0.01 99 1024.2
20260830102515 67 0.0 0.0 0.00 0.05 0.01 99 1024.0
20260830101515 67 0.0 0.0 0.00 0.05 0.01 99 1023.9
20260830095517 68 0.0 0.0 0.00 0.05 0.01 99 1023.7
20260830094517 68 0.0 0.0 0.00 0.05 0.01 99 1023.7
20260830093517 68 0.0 0.0 0.00 0.05 0.01 99 1023.7
20260830092517 68 0.0 0.0 0.00 0.05 0.01 99 1023.7
20260830091517 68 0.0 0.0 0.00 0.05 0.01 99 1023.6
20260830090617 67 0.0 0.0 0.00 0.05 0.01 99 1023.5
20260830085517 67 0.0 0.0 0.00 0.05 0.01 98 1023.6
20260830084557 67 0.0 0.0 0.00 0.05 0.01 98 1023.6
20260830083617 67 0.0 0.0 0.00 0.05 0.01 99 1023.6
20260830082535 67 0.0 0.0 0.00 0.05 0.01 98 1023.6
20260830081517 67 0.0 0.0 0.00 0.05 0.01 98 1023.7
20260830080517 67 0.0 0.0 0.00 0.05 0.01 98 1023.7
20260830075517 67 0.0 0.0 0.00 0.05 0.01 98 1023.9
20260830074517 67 0.0 0.0 0.00 0.05 0.01 98 1023.9
20260830073617 67 0.0 0.0 0.00 0.05 0.01 98 1024.1
20260830072557 68 0.0 0.0 0.00 0.05 0.01 98 1024.0
20260830071517 68 0.0 0.0 0.00 0.05 0.01 98 1024.0
20260830070517 68 0.0 0.0 0.00 0.05 0.01 98 1024.1
20260830065517 68 0.0 0.0 0.00 0.05 0.01 98 1024.2
20260830064517 68 0.0 0.0 0.00 0.05 0.01 98 1024.2
20260830063637 68 0.0 0.0 0.00 0.05 0.01 98 1024.2
20260830062517 69 0.0 0.0 0.00 0.05 0.01 98 1024.2
20260830061517 69 0.0 0.0 0.00 0.05 0.01 98 1024.2
20260830060517 69 0.0 0.0 0.00 0.05 0.01 98 1024.3
20260830055517 69 0.0 0.0 0.00 0.05 0.01 97 1024.3
20260830054517 69 0.0 0.0 0.00 0.06 0.01 97 1024.3
20260830053537 69 0.0 0.0 0.01 0.06 0.01 97 1024.3
20260830052517 69 0.0 0.0 0.01 0.06 0.01 97 1024.4
20260830051617 69 0.0 0.0 0.01 0.06 0.01 97 1024.5
20260830045516 70 0.0 0.0 0.01 0.06 0.01 96 1024.7
20260830044516 70 0.0 0.0 0.01 0.06 0.01 96 1024.8
20260830043516 71 0.0 0.0 0.00 0.05 0.00 97 1024.9
20260830042537 71 0.0 0.0 0.00 0.05 0.00 96 1024.9
20260830041557 71 0.0 0.0 0.00 0.05 0.00 96 1024.9
20260830040516 71 0.0 0.0 0.00 0.05 0.00 96 1024.9
20260830035517 72 0.0 0.0 0.00 0.05 0.05 96 1025.0
20260830034537 72 0.0 0.0 0.00 0.05 0.05 95 1025.0
20260830033537 72 0.0 0.0 0.00 0.05 0.05 95 1024.8
20260830032617 73 0.0 0.0 0.00 0.05 0.05 95 1024.6
20260830031517 73 0.0 0.0 0.00 0.05 0.05 95 1024.5
20260830030517 73 0.0 0.0 0.00 0.05 0.05 94 1024.5
20260830025517 74 0.0 0.0 0.00 0.05 0.05 94 1024.4
20260830024517 74 0.0 1.0 0.00 0.05 0.05 94 1024.3
20260830023517 74 0.0 0.0 0.00 0.05 0.05 93 1024.2
20260830022537 74 0.0 0.0 0.00 0.06 0.05 93 1024.3
20260830021537 74 0.0 1.0 0.00 0.06 0.05 93 1024.0
20260830020537 74 45 1.0 4.0 0.00 0.06 0.05 93 1023.8
20260830015537 74 0.0 2.0 0.00 0.06 0.05 93 1023.7
20260830014517 74 0.0 1.0 0.01 0.06 0.05 92 1023.5
20260830013617 75 0.0 0.0 0.01 0.06 0.05 91 1023.5
20260830012517 75 0.0 0.0 0.01 0.06 0.05 91 1023.4
20260830011557 75 0.0 0.0 0.01 0.06 0.05 90 1023.2
20260830010537 75 0.0 2.0 0.01 0.06 0.05 89 1023.2
20260830005517 76 0.0 1.0 0.01 0.06 0.05 88 1023.2
20260830004517 76 0.0 0.0 0.00 0.05 0.04 87 1023.0
20260830003517 76 0.0 0.0 0.00 0.05 0.04 86 1022.8
20260830002537 77 0.0 2.0 0.00 0.05 0.04 85 1022.8
20260830001517 77 0.0 0.0 0.00 0.05 0.04 84 1022.6